Theta_e
285 286 286 285 284 283 284 284 285 286 285 286 285 285 285 286 286 286 286 286 286 286 286 286 287 287 287 287 287 287 286 287 287 287 287 287 287 287 286 286 286 286 286 286 286 286 286 286 286 286 285 285 286 286 285 284 284 284 284 284 284 284 284 283 283 283 280 279 283 282 283 284 283 284 283 283 283 284 284 283 283 284 283 283 285
284 285 285 286 284 284 283 283 283 283 283 283 284 284 284 285 285 285 285 285 284 285 285 285 286 286 286 286 286 286 286 286 286 286 287 287 286 287 287 286 286 286 285 285 286 286 286 286 286 286 285 285 286 285 285 284 283 283 283 283 284 285 283 284 283 283 282 280 280 280 281 284 282 283 283 282 282 283 282 282 283 282 281 280 280
284 284 284 284 284 284 284 283 282 282 282 282 283 283 283 284 285 284 285 285 285 284 284 285 285 286 286 286 286 286 286 286 286 285 286 286 286 286 287 286 286 286 285 285 285 285 285 285 285 285 286 285 285 285 285 284 284 284 284 284 284 285 283 284 284 283 282 279 280 280 281 282 282 282 283 283 282 282 281 281 281 281 281 279 279
284 283 283 283 283 283 283 283 283 282 281 281 281 282 283 283 284 284 284 284 284 285 285 285 285 285 285 286 285 285 285 285 286 286 286 286 286 286 286 286 286 286 286 286 285 285 285 285 285 285 285 285 285 285 284 284 284 284 284 284 284 284 284 283 284 285 283 280 279 280 281 281 281 281 283 282 281 280 281 281 279 280 280 280 279
284 283 283 282 282 282 282 282 281 281 281 281 281 281 282 282 283 283 283 283 284 284 284 284 284 285 285 285 285 285 285 285 285 285 285 285 285 286 286 285 285 285 285 286 286 285 285 285 285 284 284 284 285 284 284 284 284 284 284 284 284 284 283 283 284 284 282 281 279 280 281 281 282 281 282 280 279 279 279 279 279 279 279 279 280
282 282 282 282 282 282 282 282 282 281 281 281 281 281 282 281 281 282 282 282 282 283 283 283 283 284 284 284 284 285 285 285 285 284 284 284 284 285 285 285 286 285 285 285 285 285 285 285 285 285 284 284 285 285 284 284 284 284 284 284 283 283 283 283 283 283 283 283 279 279 279 279 279 279 281 281 280 278 278 278 278 278 278 278 279
281 281 280 280 280 280 280 280 281 281 281 281 281 281 281 281 281 281 281 281 282 282 282 282 283 283 283 283 284 284 285 285 285 285 285 285 285 284 284 285 285 285 285 285 284 284 285 285 285 285 285 285 284 284 284 284 284 284 284 283 283 283 282 282 282 282 282 282 279 279 279 280 280 279 280 281 280 280 278 277 276 278 278 278 278
281 280 280 279 279 280 280 280 281 281 281 281 280 280 281 280 281 281 281 281 281 281 281 282 282 282 283 283 283 283 283 284 284 285 285 285 284 284 284 284 284 284 285 285 285 284 284 284 284 284 285 285 284 284 283 283 284 284 284 283 283 282 282 282 282 282 282 282 281 278 278 279 278 277 279 279 278 277 278 278 277 277 278 279 280
280 279 279 279 279 279 280 279 280 280 280 280 280 281 281 281 281 281 280 280 281 281 281 281 281 281 281 282 282 283 283 284 284 284 284 284 284 284 284 284 284 284 284 284 285 284 284 285 285 284 285 285 286 286 286 286 285 284 284 283 282 282 283 283 282 281 281 281 281 279 277 277 278 277 277 278 277 278 278 279 279 279 279 278 278
280 279 279 279 279 279 279 279 280 280 280 280 280 280 280 281 281 281 281 281 281 281 281 281 280 280 280 280 281 282 282 283 285 287 288 286 285 285 285 284 284 284 284 284 284 285 285 285 285 286 286 286 286 287 288 288 288 286 285 283 282 283 283 283 282 282 281 280 281 280 276 277 277 278 277 278 279 279 278 278 277 278 278 278 278
279 278 279 279 279 279 280 280 280 279 280 279 279 280 280 280 280 280 280 280 280 280 280 280 280 280 280 280 280 281 281 282 285 288 289 289 286 284 283 283 283 283 283 283 283 284 284 284 284 285 285 286 285 287 288 288 288 289 289 288 286 284 283 282 282 282 281 281 281 281 279 278 278 278 278 278 279 279 278 279 279 278 277 276 275
279 279 279 279 279 280 280 280 280 280 280 280 280 280 280 279 279 279 279 279 279 279 279 279 280 280 280 280 280 281 281 284 286 287 288 288 288 285 283 283 283 282 283 283 283 283 283 283 284 285 285 285 285 285 286 287 288 288 288 289 289 289 288 285 283 282 282 281 281 281 281 280 279 278 278 278 278 279 279 279 279 278 278 277 277
279 280 280 279 280 280 280 280 280 280 280 280 280 280 280 280 279 279 279 279 279 278 278 279 279 279 280 280 280 280 280 284 286 287 287 287 287 287 284 283 282 282 282 282 283 283 283 283 283 284 285 285 285 285 285 285 286 287 288 288 288 289 289 289 288 285 284 282 281 281 281 281 280 279 279 279 279 278 279 279 279 279 279 278 278
279 279 279 279 279 279 280 279 279 280 280 280 280 280 279 279 279 279 279 279 278 278 278 278 278 278 278 279 279 280 280 283 285 286 286 286 287 286 284 283 282 282 282 282 283 282 283 283 283 283 284 284 284 284 284 284 284 284 284 285 285 286 287 289 288 288 286 284 283 282 283 283 281 281 280 281 279 278 278 278 280 279 280 280 281
277 277 277 278 278 278 278 278 278 278 278 279 279 279 279 278 278 279 279 278 278 278 278 277 277 278 278 278 278 278 279 283 284 285 286 286 286 286 284 283 283 283 283 282 282 283 283 283 283 283 283 284 284 284 283 283 283 284 283 283 284 284 285 285 286 286 286 285 284 283 284 284 283 282 280 282 280 280 281 280 281 281 281 282 281
275 275 275 276 276 276 276 275 275 275 275 276 275 275 276 276 276 277 277 277 278 278 277 277 277 276 277 277 277 277 278 282 283 284 284 285 286 284 283 282 282 282 282 282 282 283 283 283 283 283 283 283 285 287 287 284 283 283 282 283 283 283 284 286 287 287 286 286 285 285 284 285 286 284 282 282 282 281 282 281 281 280 279 278 277
272 273 273 273 274 273 273 272 272 272 273 273 272 273 273 273 274 275 274 274 275 275 275 275 276 276 276 276 276 276 277 280 282 283 283 284 284 282 281 281 281 281 281 281 282 282 282 283 283 283 283 283 285 288 288 288 284 282 281 281 282 282 283 284 287 287 288 288 288 289 289 289 289 291 290 288 284 283 281 280 279 279 278 276 276
271 271 271 271 271 271 270 270 270 270 270 270 270 270 271 270 271 272 271 271 271 272 273 273 274 275 275 275 275 275 275 278 281 281 282 283 283 281 280 280 279 280 279 280 281 281 282 284 284 283 283 283 286 288 288 287 285 284 282 281 280 280 281 283 284 284 287 288 288 288 288 289 289 289 290 290 288 287 281 278 279 280 277 278 276
269 269 269 269 268 268 268 267 267 267 267 266 266 266 266 266 268 268 268 269 270 271 272 272 272 273 273 274 276 275 275 277 280 280 281 282 280 278 278 278 278 278 279 279 280 280 281 282 284 284 284 285 287 288 288 287 284 284 283 282 281 280 281 282 281 281 282 283 284 284 285 286 286 285 285 288 288 286 282 282 282 279 278 278 278
267 267 266 266 266 265 265 265 264 264 263 263 264 264 265 265 265 266 266 267 267 268 269 270 269 270 271 272 272 273 273 273 275 279 279 280 281 278 277 276 276 277 278 278 278 279 280 280 283 286 287 288 288 289 289 289 285 283 283 282 281 280 282 282 282 282 281 282 282 283 283 284 284 284 283 284 285 284 282 282 282 281 280 279 278
265 264 264 264 263 263 262 262 262 262 262 262 263 263 263 263 263 263 264 265 265 265 266 266 266 267 268 269 270 271 271 272 273 277 278 279 280 279 275 275 275 276 276 277 277 278 278 279 280 284 286 287 288 288 289 289 288 285 283 282 282 283 285 280 281 283 281 281 281 281 281 282 282 282 282 282 283 284 283 283 282 282 281 280 279
263 262 262 261 261 261 261 261 261 261 261 261 260 260 261 262 262 262 262 262 262 262 262 264 264 265 266 267 268 268 270 273 271 274 276 277 278 279 275 274 275 274 274 275 276 277 278 279 279 282 285 286 287 288 288 289 289 287 285 287 287 287 285 282 281 281 281 280 280 279 280 280 280 280 281 281 282 283 283 282 282 282 282 282 281
262 261 260 260 260 260 260 260 260 260 260 260 260 259 260 260 260 261 260 260 260 260 261 262 263 263 264 265 266 267 268 269 273 271 274 276 277 277 278 277 279 277 275 275 276 277 279 279 280 283 284 285 286 287 287 288 288 287 288 288 288 287 286 283 281 280 280 279 279 278 279 279 279 279 279 280 281 282 282 282 282 281 281 281 281
260 259 259 259 259 259 259 259 259 259 259 259 259 258 258 259 259 260 260 260 260 260 260 261 262 262 262 263 265 266 267 268 270 272 271 274 275 276 277 278 278 276 276 276 277 278 279 279 280 283 284 285 285 286 287 287 286 288 289 289 288 287 285 283 281 280 279 278 278 278 277 278 278 278 279 280 280 281 281 281 280 280 279 277 277
259 258 258 258 258 258 258 258 258 258 258 258 258 258 258 258 258 259 259 259 259 259 259 260 260 261 261 262 263 264 266 267 267 269 272 272 274 274 275 276 277 278 275 276 278 279 281 283 283 283 283 284 285 285 286 286 287 287 288 288 287 286 284 283 282 280 278 277 277 278 278 278 278 279 280 280 280 280 279 278 279 278 275 275 275
258 257 257 257 257 258 257 257 258 258 258 258 258 258 258 258 258 258 259 259 259 258 258 259 259 260 260 261 262 263 264 265 266 267 268 269 270 272 273 275 275 276 277 275 278 279 279 281 283 283 283 283 282 282 282 282 285 286 287 286 285 285 284 283 282 280 279 278 278 277 278 278 278 279 279 279 279 277 276 275 274 272 271 271 270
257 257 257 257 257 257 256 257 257 257 257 258 258 258 258 258 258 258 258 258 258 258 258 259 259 259 259 259 260 261 261 262 263 264 265 265 265 267 268 269 273 275 274 274 276 276 278 279 281 283 283 283 283 283 283 283 283 283 283 283 283 284 284 283 282 281 279 279 278 278 278 278 279 278 276 277 276 276 275 274 273 271 271 271 270
257 257 257 257 257 257 256 257 257 256 257 257 257 257 258 258 258 257 257 257 257 257 257 258 258 258 258 259 259 259 260 260 261 262 263 264 264 266 267 268 269 271 272 273 274 276 277 279 280 280 280 280 280 280 281 281 281 281 281 281 282 283 284 284 283 282 281 280 279 279 278 277 276 276 275 275 275 274 274 273 272 271 270 270 268
257 256 256 256 256 257 256 256 256 256 256 256 257 257 257 257 257 258 259 259 259 258 258 259 260 260 260 260 260 260 260 261 262 267 266 269 267 267 267 268 269 269 272 275 273 274 274 275 276 276 276 276 277 277 278 279 280 281 280 280 281 282 282 282 281 281 280 279 278 277 277 276 275 275 274 274 273 273 273 272 272 271 270 270 269
256 256 256 256 256 256 256 256 256 256 255 255 256 256 260 263 263 261 260 265 268 269 269 264 264 264 264 264 265 263 263 264 269 272 272 273 273 274 274 274 275 273 274 276 275 272 272 272 273 274 275 275 275 276 277 278 279 279 280 281 281 281 281 281 281 281 280 279 278 277 276 275 274 274 273 273 272 271 272 272 270 270 269 269 269
256 256 256 256 256 256 256 256 256 256 256 256 256 256 256 258 264 266 266 266 267 269 269 270 270 271 267 265 267 271 272 272 272 272 273 273 273 273 274 274 274 275 275 272 271 271 271 271 272 273 274 275 275 275 276 277 278 278 279 279 280 280 280 280 280 281 280 278 278 277 276 275 274 273 272 272 271 270 270 270 270 269 269 269 269
255 256 256 256 256 256 256 256 256 255 255 256 256 255 255 255 256 262 266 266 267 268 268 269 269 270 270 269 267 265 268 270 271 271 272 272 272 273 273 274 274 275 275 276 271 270 270 271 271 272 273 274 275 276 276 277 277 278 278 278 278 279 279 279 280 280 279 278 277 276 275 274 273 273 272 271 270 269 269 268 268 268 268 269 269
256 256 256 256 256 256 256 256 256 255 255 255 255 255 255 255 255 255 259 264 266 267 267 268 269 269 269 270 270 269 269 270 271 271 272 272 272 273 273 274 275 275 276 272 270 270 270 271 271 272 273 273 274 275 276 277 277 278 278 278 278 278 279 280 281 279 279 278 277 275 274 273 273 272 271 270 269 268 268 267 268 268 268 268 268
256 256 256 256 256 256 256 256 256 256 256 256 256 256 256 256 256 256 256 256 258 262 265 266 267 268 268 269 269 269 270 270 271 271 272 272 273 273 273 271 274 276 274 271 270 270 270 271 271 272 272 273 274 275 275 276 277 277 278 278 278 278 279 279 279 278 277 277 276 274 273 272 272 271 270 269 269 268 267 267 267 267 267 267 267
256 256 257 257 256 256 256 256 256 256 256 256 256 256 256 257 257 256 256 256 256 256 257 259 263 266 264 265 268 269 270 270 271 271 272 272 273 273 274 270 269 269 270 270 270 270 270 271 271 272 273 273 274 275 276 277 277 277 277 277 278 278 278 277 277 277 276 276 275 273 272 272 271 271 270 268 267 267 266 266 266 267 267 266 266
255 256 256 257 257 256 256 256 256 256 256 256 257 257 257 257 257 257 257 257 257 257 257 258 259 263 267 268 269 269 269 270 270 271 271 272 273 273 268 268 268 269 270 270 270 271 271 272 272 273 274 274 275 275 276 276 277 277 277 277 277 276 276 276 276 275 275 275 273 272 271 271 271 270 269 268 267 267 266 266 266 266 267 266 266
255 255 256 256 256 256 256 256 256 257 259 258 258 258 258 258 258 258 258 258 258 258 258 258 259 259 263 262 263 267 269 269 270 270 271 272 272 270 267 267 267 268 269 270 270 271 271 271 272 273 274 274 275 276 276 276 277 277 278 278 277 275 275 275 275 274 273 272 272 271 270 270 270 269 268 267 267 266 266 266 266 266 266 266 266
255 255 255 256 256 257 257 257 257 258 258 258 258 258 258 258 258 258 258 258 258 258 258 258 260 259 258 259 263 262 262 266 268 268 268 268 266 265 265 266 267 268 269 270 271 271 271 272 273 273 274 275 275 276 277 277 277 277 277 276 275 274 275 274 274 273 272 272 271 270 270 269 269 268 268 267 266 265 265 265 265 265 266 266 265
255 256 257 257 258 257 257 257 257 257 257 258 258 258 258 258 258 258 258 258 258 258 259 258 258 258 259 260 260 262 262 261 261 261 263 264 265 266 266 266 267 268 269 270 272 272 272 272 273 274 274 275 276 277 277 276 276 276 275 274 272 272 273 272 272 271 271 270 270 269 269 268 268 268 268 267 266 265 265 265 265 265 265 264 264
255 255 256 257 256 257 257 257 257 257 257 257 258 258 258 258 259 259 259 259 258 259 259 258 258 259 260 260 260 261 261 262 263 264 265 265 266 267 267 267 268 268 269 271 272 273 273 274 274 274 274 276 276 276 275 274 272 272 272 272 271 271 271 271 270 270 269 269 268 268 267 267 267 267 267 267 266 266 265 265 265 265 265 265 265
254 254 255 256 257 256 256 257 257 257 257 258 258 258 258 259 259 260 259 259 259 259 259 259 259 260 261 262 267 268 265 265 265 266 266 266 267 268 269 270 270 270 271 272 272 273 273 274 275 274 274 274 272 272 272 272 271 270 270 270 271 270 270 270 269 269 268 267 267 267 267 267 266 266 265 265 267 266 265 265 265 265 265 265 265
254 254 254 255 256 255 255 256 256 257 257 258 258 258 259 259 259 259 260 260 260 260 260 260 260 260 263 266 268 270 267 266 266 266 267 267 267 267 267 268 268 269 269 269 270 270 271 272 271 271 271 270 271 270 268 268 269 270 270 270 270 269 268 268 268 267 267 266 266 266 266 266 266 266 266 267 265 265 265 264 264 264 264 264 264
254 254 254 255 255 255 255 256 256 256 257 257 257 259 259 259 259 259 260 260 260 260 260 260 261 262 263 266 266 266 263 262 262 262 263 264 264 264 264 264 266 267 267 268 269 269 270 270 270 270 269 268 266 266 268 269 270 270 269 269 268 268 267 266 266 266 266 266 265 265 265 266 266 265 265 265 264 264 264 264 264 264 264 264 264
254 254 254 254 255 255 255 255 255 256 256 257 258 258 258 258 258 259 259 259 260 260 260 261 261 261 261 262 262 261 260 259 259 260 261 261 261 261 262 262 263 264 264 264 265 266 268 269 268 268 267 267 268 268 269 269 269 269 268 268 267 266 266 265 265 265 265 265 264 264 265 265 265 265 264 264 264 264 263 263 263 263 263 263 264
253 253 253 253 254 254 254 255 255 256 256 256 256 256 257 257 257 258 258 258 259 259 259 260 260 260 260 259 259 258 258 258 259 259 260 260 260 260 260 261 262 262 262 263 264 264 265 265 266 265 266 266 267 267 267 267 267 267 267 267 266 266 266 265 265 265 265 265 264 264 264 264 264 264 264 264 264 264 263 263 263 263 263 263 263
253 253 253 253 254 254 254 254 255 255 255 255 255 255 255 256 256 257 257 258 258 258 258 258 258 259 258 258 258 258 258 258 258 259 259 259 259 259 259 259 260 260 261 262 262 263 263 263 264 264 265 266 266 266 266 266 266 266 266 266 266 266 266 266 266 265 265 265 265 265 264 264 264 264 264 264 264 264 263 263 263 263 263 263 263
252 252 253 253 253 254 254 254 254 254 254 254 254 254 255 255 256 256 257 257 257 258 257 257 257 257 257 257 257 257 257 257 257 258 258 258 258 258 258 258 258 259 259 260 260 261 261 262 262 263 263 263 264 264 264 265 265 265 265 265 265 265 265 265 265 265 265 265 265 265 264 264 263 263 263 263 263 263 263 263 263 263 263 263 263
252 252 252 253 253 253 253 253 253 254 253 253 254 254 254 255 255 255 255 256 256 256 256 256 256 257 257 257 257 257 257 257 257 257 257 257 257 258 258 258 258 258 258 258 259 259 259 259 260 260 260 261 261 261 262 262 263 263 264 264 264 264 264 264 265 265 265 265 265 265 264 264 263 263 263 263 263 263 262 262 263 263 263 263 263
251 252 252 252 252 253 252 252 253 252 252 253 253 253 253 254 254 254 255 255 256 256 256 256 256 257 257 257 257 257 257 257 257 257 257 257 257 257 258 258 258 258 258 257 258 258 258 258 259 259 259 259 260 260 260 261 262 262 263 264 265 265 265 265 264 264 264 265 265 264 264 264 263 263 263 263 263 263 263 263 263 263 263 263 263
251 252 251 252 252 252 252 252 252 252 252 252 252 252 253 253 253 254 254 254 255 255 256 256 256 256 256 257 257 257 257 256 256 256 257 257 257 258 258 257 257 257 257 257 257 258 258 258 258 259 259 259 259 260 260 261 262 263 263 264 265 265 264 265 265 265 264 264 264 264 263 263 263 263 263 263 263 262 262 262 262 262 262 262 262
251 251 251 251 251 252 251 251 251 251 251 252 252 252 252 252 252 253 254 254 254 255 255 256 256 256 256 256 257 256 256 256 256 256 256 256 257 257 257 257 257 257 257 257 257 257 258 258 259 259 260 260 260 260 261 261 262 263 263 264 264 264 263 263 264 264 264 264 263 263 263 262 262 262 262 262 262 262 262 262 262 262 262 262 262
Wind_Speed
5 4 6 6 7 8 7 7 8 7 8 6 7 6 6 6 6 6 6 8 7 9 8 8 8 8 7 7 6 6 5 6 5 5 5 6 7 6 7 7 8 8 7 9 7 7 9 10 10 9 6 8 10 8 8 8 7 7 8 8 9 8 7 8 9 7 2 1 6 8 9 11 9 11 11 9 9 10 10 10 10 10 9 9 9
5 5 4 4 4 4 5 6 7 7 8 7 7 7 8 8 8 7 6 5 5 7 7 7 7 8 7 8 7 6 5 5 5 5 5 6 6 6 6 7 8 8 7 9 8 8 8 10 10 8 7 10 10 10 9 8 8 9 9 9 10 10 7 8 9 8 9 1 3 3 7 10 11 10 14 13 12 9 11 10 9 9 9 8 8
4 5 5 5 5 4 4 4 4 4 5 6 8 9 8 8 7 8 9 9 8 6 5 5 6 6 6 7 7 7 7 6 6 5 5 6 7 7 7 7 8 9 9 10 9 8 9 10 10 8 6 10 11 10 8 9 8 10 12 9 11 11 8 9 9 10 9 7 5 8 9 9 12 12 12 11 10 11 12 11 10 8 7 9 8
4 4 4 4 5 4 4 4 4 4 4 4 4 5 5 6 6 7 8 7 9 10 9 9 8 6 5 6 6 6 7 7 7 6 6 6 6 7 7 8 8 9 10 10 9 9 10 10 9 8 8 11 11 9 8 8 9 10 11 10 11 12 9 8 10 12 8 9 8 9 9 11 9 5 8 7 10 10 11 8 5 7 7 8 9
1 2 3 4 4 4 4 3 4 4 4 3 3 4 4 4 4 6 7 8 8 9 9 8 8 9 10 10 9 7 7 7 7 7 6 5 6 7 7 7 8 9 10 10 10 9 10 10 9 7 9 12 12 10 9 10 11 10 11 10 10 9 7 9 11 10 9 11 7 7 7 8 6 7 11 12 8 7 6 9 10 10 8 7 6
1 0 0 0 1 1 2 1 2 3 4 4 4 4 4 4 4 4 4 5 6 7 9 9 8 9 9 9 9 10 9 8 7 7 7 7 6 7 7 7 7 8 8 8 8 8 10 10 9 9 10 12 12 10 10 12 11 12 13 11 9 8 9 10 10 11 12 12 8 8 6 9 6 7 11 12 12 10 8 8 5 7 8 8 8
3 3 3 3 3 3 3 3 3 3 3 3 3 3 4 4 4 4 4 4 5 5 6 7 7 8 10 9 9 9 9 9 9 9 9 9 8 7 8 8 8 8 7 8 7 8 9 10 10 10 11 12 12 10 10 10 11 13 13 12 10 9 10 10 10 11 12 12 7 9 10 9 10 11 9 10 11 12 14 12 10 8 8 10 9
3 4 4 5 4 5 4 4 4 5 5 5 4 4 4 4 4 5 4 5 5 6 6 7 7 6 8 9 9 9 10 9 9 9 9 9 9 8 8 9 9 9 9 9 8 8 8 8 8 9 10 11 11 10 9 10 9 11 11 9 9 10 11 10 10 11 12 12 11 9 8 10 8 2 4 9 9 7 8 10 13 12 12 11 12
4 4 4 5 5 5 5 5 5 5 6 5 6 6 6 6 6 6 5 6 6 6 6 6 7 8 8 9 9 8 8 9 8 8 9 10 8 8 9 9 9 10 10 10 9 10 10 10 10 10 11 14 16 14 13 11 10 10 10 8 9 11 10 10 10 10 10 11 11 7 8 9 11 11 11 14 17 17 12 11 12 10 9 8 9
4 5 5 6 5 5 5 5 6 7 7 8 8 7 7 8 8 8 8 7 8 8 7 7 7 7 7 7 8 8 8 7 10 16 14 10 9 8 9 9 9 9 10 10 10 10 10 10 10 15 17 18 18 18 18 18 18 13 10 7 9 10 11 11 11 11 11 12 13 10 9 12 13 14 14 14 12 8 11 13 11 8 8 9 5
4 4 5 5 6 7 7 7 7 8 8 7 7 7 9 9 8 8 8 8 10 9 9 10 10 9 10 10 9 8 7 8 14 16 17 19 13 9 9 10 9 10 10 10 11 11 10 10 9 11 13 15 15 20 20 22 22 22 22 18 14 12 11 13 13 12 12 13 13 12 12 14 14 12 13 11 11 14 14 14 13 10 13 13 12
6 6 6 6 6 8 8 10 11 12 10 10 10 9 9 9 9 9 9 9 9 8 9 10 11 11 11 11 12 11 10 11 16 17 19 20 17 12 9 9 9 9 10 11 10 10 10 10 9 8 9 11 12 11 15 19 21 22 22 21 22 23 20 15 14 12 13 13 14 14 14 15 13 11 10 10 12 11 10 12 14 15 13 13 11
8 8 8 8 9 8 8 8 9 11 11 11 11 11 11 12 12 11 11 10 8 8 10 11 11 11 11 13 13 13 13 12 18 19 20 21 21 17 10 10 10 10 11 11 11 11 10 10 10 10 9 15 13 12 12 12 16 20 21 21 22 24 24 25 23 17 12 14 14 15 16 15 13 12 13 13 10 14 13 12 14 13 13 14 14
8 9 9 9 9 9 10 9 10 10 10 10 10 11 12 13 12 10 10 10 10 11 12 13 13 13 13 13 13 12 14 13 20 22 22 23 23 20 11 12 12 12 12 11 11 11 11 11 11 11 10 10 9 11 11 11 11 10 11 13 13 18 22 25 25 26 21 15 15 17 16 13 12 10 11 13 15 15 14 14 12 12 13 15 11
9 9 10 9 9 8 9 9 10 10 11 11 11 11 11 11 11 11 10 11 12 13 13 13 14 14 14 14 14 15 15 20 22 23 23 24 25 21 13 12 12 12 12 12 12 12 12 12 12 12 12 11 10 11 10 10 10 10 11 12 13 13 14 15 17 17 16 15 15 17 15 13 13 10 11 14 17 15 15 15 16 15 14 7 1
9 9 9 9 10 10 9 10 11 12 13 13 14 14 13 13 14 13 13 12 12 12 13 13 15 16 16 15 15 17 16 23 26 25 26 25 27 16 12 13 13 12 13 13 13 12 12 12 12 13 13 12 13 18 16 11 10 12 13 13 13 12 13 15 18 18 16 15 15 16 14 13 13 12 11 14 13 11 10 5 3 6 7 7 10
9 10 10 10 9 10 11 12 14 14 13 14 14 14 14 15 14 12 14 14 14 15 15 15 15 16 17 17 17 17 17 20 26 28 27 29 22 14 13 12 12 13 14 13 13 13 13 13 13 13 13 13 14 17 19 18 12 13 14 14 13 12 13 13 16 22 22 22 24 24 21 15 19 13 13 20 17 14 11 10 13 12 11 11 10
10 10 10 9 11 11 12 12 13 14 13 13 14 14 13 13 14 13 14 16 17 17 16 16 16 16 17 18 18 18 18 21 29 30 31 30 24 15 12 12 13 13 14 14 13 13 15 21 19 15 14 14 15 19 19 16 13 14 14 14 14 14 15 13 9 11 21 22 24 24 25 23 21 21 20 19 20 17 16 19 15 11 12 14 13
10 11 11 11 11 10 10 11 12 13 14 14 13 15 16 15 15 14 15 15 16 16 15 15 16 16 16 17 19 21 19 20 26 29 30 29 24 16 15 13 15 14 14 15 14 13 14 16 23 21 17 16 20 20 20 17 13 13 14 14 14 15 16 13 10 10 11 13 15 16 16 19 17 15 15 20 22 19 18 17 12 14 16 15 11
11 11 11 11 10 10 10 11 13 13 14 15 14 14 12 12 13 14 15 13 13 14 14 14 16 17 17 17 17 18 20 20 21 31 31 31 31 20 14 14 15 16 15 15 15 14 15 14 15 20 25 25 24 23 22 22 15 13 13 13 14 17 14 12 10 12 13 13 12 13 15 15 14 12 12 13 16 18 17 16 14 15 16 14 13
10 11 11 11 11 11 10 10 13 14 12 12 12 12 11 12 13 13 14 13 12 14 15 17 16 18 18 18 18 19 17 19 21 31 32 33 34 29 17 17 16 16 16 17 16 16 15 14 13 16 22 24 25 25 24 24 23 15 14 14 15 17 14 5 12 19 12 11 12 12 12 11 12 12 13 14 14 13 14 14 13 14 14 14 14
10 10 10 11 11 12 12 12 12 12 13 12 13 13 10 11 12 12 12 12 16 17 17 14 16 16 17 17 17 18 19 26 20 27 33 34 35 36 23 19 20 18 20 19 19 18 17 15 14 14 20 23 24 24 25 24 26 18 14 18 21 22 17 10 9 9 10 10 10 10 11 11 12 12 13 14 14 15 14 14 14 13 12 12 14
10 10 11 12 12 13 12 13 13 11 12 12 13 15 13 12 13 12 12 13 14 16 16 14 14 16 16 14 13 15 15 16 27 24 30 33 34 34 36 29 33 24 20 20 20 19 17 16 15 19 21 22 23 24 24 25 22 17 23 23 22 22 18 11 9 9 10 10 10 11 11 12 12 12 12 13 12 13 13 12 12 11 10 10 9
10 11 11 12 13 13 12 12 12 11 12 13 13 14 14 13 12 11 11 12 11 14 12 11 13 14 15 14 12 11 12 12 18 27 26 32 32 33 33 34 34 24 20 18 18 18 17 18 17 22 23 23 25 25 25 23 15 20 23 24 23 21 13 11 10 11 10 10 11 12 13 12 11 11 12 11 10 10 10 10 9 9 8 5 4
11 12 12 13 13 12 13 12 12 12 12 11 13 13 13 12 12 11 11 12 12 13 12 11 12 13 15 14 14 11 10 11 13 19 28 28 31 32 33 34 33 34 25 20 20 18 20 26 26 27 24 25 27 27 22 23 27 25 24 23 21 12 12 11 12 11 11 12 13 13 13 12 12 12 10 8 8 8 8 6 7 6 5 5 4
12 13 13 12 12 13 15 14 12 12 13 11 11 11 12 13 12 12 11 12 12 13 14 13 13 14 14 13 13 12 12 10 11 10 15 21 22 29 33 32 32 32 31 25 33 40 41 37 38 37 32 26 18 15 13 12 19 24 24 22 13 12 12 12 11 12 13 13 14 13 13 10 9 9 9 9 9 10 10 9 8 7 8 8 7
13 13 13 13 12 12 13 12 12 12 11 11 10 11 11 11 12 12 12 13 13 13 14 14 14 14 14 14 13 13 13 11 12 11 12 13 16 19 20 20 26 27 18 17 21 22 25 29 22 22 22 26 25 20 19 16 15 14 13 12 12 12 12 12 12 13 13 12 12 11 10 8 6 7 9 10 10 8 9 11 11 10 9 8 9
12 13 14 13 12 11 12 14 15 12 11 10 11 11 11 11 12 13 13 13 14 14 14 15 15 15 15 13 13 14 13 11 11 13 14 13 14 14 14 16 14 11 13 14 14 15 15 19 26 20 16 15 16 12 11 11 12 12 11 11 11 12 14 16 14 11 11 11 11 9 7 8 10 10 8 9 9 9 9 10 11 11 10 10 9
13 14 13 12 12 11 11 12 11 12 12 11 10 11 12 12 13 14 14 13 13 14 15 15 16 15 14 14 15 15 14 13 12 15 18 23 21 17 14 14 14 15 19 27 22 19 16 15 12 11 10 11 11 11 11 12 12 12 14 12 11 11 11 11 12 13 12 11 10 10 10 9 9 8 9 9 9 9 9 10 10 12 10 10 13
12 13 11 12 12 11 11 11 11 11 11 12 12 12 15 23 19 16 15 21 30 32 28 20 18 17 17 15 13 16 14 14 25 32 32 32 33 33 31 31 29 25 29 35 25 17 15 13 13 12 12 11 12 12 12 12 12 12 12 14 13 11 12 12 12 12 10 11 11 10 10 10 10 10 10 10 8 8 9 11 10 10 12 12 11
12 12 12 11 12 13 12 12 11 11 11 12 12 12 12 12 22 28 28 28 29 31 31 33 35 33 25 20 19 32 35 36 34 31 32 32 32 32 31 30 31 30 31 24 17 13 11 12 12 12 12 12 12 12 11 11 11 11 12 11 12 13 13 11 11 11 10 10 10 10 10 10 11 11 12 11 11 9 8 7 8 10 12 12 11
13 13 12 12 13 13 11 12 12 11 11 11 12 12 12 13 13 19 26 27 28 30 30 32 32 32 33 30 25 18 24 30 32 31 31 31 30 30 30 30 30 30 29 29 19 17 13 12 12 12 11 12 11 11 11 11 10 11 10 11 11 11 12 12 12 11 10 10 10 10 10 11 11 11 11 11 11 11 11 10 9 10 9 9 10
14 14 13 13 12 13 12 11 11 11 12 12 12 11 12 12 15 14 15 22 28 29 29 29 30 30 31 31 32 29 28 28 31 30 30 30 30 29 30 31 30 29 30 19 14 14 13 12 13 11 10 12 12 12 10 10 10 10 10 11 11 10 11 11 11 9 10 10 10 10 10 10 10 10 10 10 12 11 11 11 10 10 10 10 9
14 13 13 13 13 12 11 10 11 11 11 11 12 12 12 13 14 15 15 14 15 19 23 25 26 28 29 30 30 30 29 30 29 29 29 28 28 28 27 22 28 30 25 16 13 12 13 13 14 14 13 12 11 12 14 13 12 11 11 11 10 9 9 9 9 10 10 10 10 9 10 10 10 11 10 10 10 11 11 11 11 11 10 11 11
13 14 20 16 11 11 10 10 11 11 11 12 12 13 13 13 13 14 13 14 15 16 15 16 19 24 22 22 27 31 29 29 28 27 28 27 27 27 27 16 13 12 13 11 11 12 12 12 13 13 14 14 14 14 15 14 13 11 10 9 9 9 8 9 10 10 10 9 9 10 10 11 11 11 12 12 11 11 11 11 11 12 12 11 10
12 12 11 12 11 10 10 10 11 11 11 12 12 13 13 12 13 12 13 13 14 14 14 14 14 19 29 28 29 27 27 27 26 27 26 27 27 27 14 10 11 11 11 9 10 11 12 12 13 13 13 14 13 14 14 13 13 10 9 9 9 9 9 9 9 9 10 10 10 11 10 10 11 12 10 11 15 15 13 13 12 11 11 11 10
11 11 11 10 10 10 11 11 11 12 13 13 12 12 12 12 12 12 12 13 13 13 13 14 13 15 18 13 14 22 27 26 26 27 27 26 27 18 10 11 11 12 11 10 10 10 11 12 12 13 12 12 12 13 13 14 12 11 10 10 9 9 9 10 10 9 9 9 9 11 13 12 12 11 12 12 10 9 10 10 10 11 11 13 12
11 10 10 10 10 11 11 11 12 17 13 12 11 11 12 12 12 12 12 13 14 13 13 13 12 12 13 16 16 11 16 23 26 22 19 17 13 9 10 10 11 11 12 11 11 11 12 12 11 11 11 12 13 12 12 13 11 10 10 10 9 9 12 11 12 12 11 11 11 11 11 10 10 11 11 11 12 11 11 11 10 10 9 12 10
10 15 19 20 16 11 10 11 12 11 12 12 11 12 12 12 12 12 12 12 12 12 12 12 12 12 12 11 12 14 15 13 11 11 13 12 11 11 10 10 10 10 12 12 13 12 12 13 13 12 11 11 12 12 10 9 9 8 8 8 8 7 9 7 8 8 9 9 9 9 9 9 9 10 10 11 11 11 12 12 11 11 12 11 9
12 10 12 18 12 12 10 11 11 11 11 11 12 12 12 12 12 12 12 12 12 12 12 12 12 12 12 12 12 11 11 13 13 13 12 12 12 12 11 11 11 11 12 12 12 12 12 12 12 12 12 11 10 10 9 7 6 6 7 8 8 8 9 9 9 10 9 9 9 9 9 10 9 9 9 9 10 11 12 12 11 10 10 10 10
10 11 11 12 14 12 11 11 10 10 10 11 11 11 12 13 13 13 12 12 12 12 12 12 12 12 12 16 27 26 15 12 12 12 12 13 12 10 10 10 11 11 11 11 11 11 12 12 11 11 10 8 5 3 4 5 6 7 8 8 8 9 9 8 8 8 8 9 9 9 9 9 9 10 10 8 10 10 8 9 9 8 8 9 9
10 11 10 10 11 9 9 11 11 12 11 12 11 11 12 12 12 12 13 12 12 12 12 12 11 11 17 30 26 28 16 10 10 11 10 10 10 11 11 9 9 9 10 10 10 10 11 10 5 2 1 3 4 5 5 5 6 8 8 8 8 8 7 7 8 8 9 9 9 9 9 9 9 8 10 11 10 9 10 9 9 9 9 9 9
10 9 10 10 9 9 10 10 10 10 10 10 10 11 12 12 11 12 12 12 12 12 11 12 12 11 12 19 21 23 12 11 11 12 11 10 10 11 11 11 10 9 10 10 10 9 9 8 7 7 7 7 6 2 1 4 6 6 6 6 7 7 8 8 8 8 8 8 9 9 10 10 10 9 9 9 9 10 9 10 10 9 9 9 9
9 9 9 9 10 9 9 9 9 10 9 12 14 12 12 11 11 10 11 11 11 11 11 11 11 12 12 14 15 13 10 10 10 9 10 10 10 10 10 10 11 10 9 9 9 10 9 8 8 8 8 8 7 7 7 6 4 3 5 7 6 7 7 8 9 9 10 9 10 10 10 10 10 10 10 10 10 11 10 10 10 10 9 9 9
8 8 9 9 9 9 9 8 9 10 12 11 9 10 11 10 10 10 10 10 12 12 10 10 11 12 12 11 11 11 10 10 11 10 10 10 9 9 10 11 11 11 10 8 8 9 9 8 8 8 8 7 7 7 7 7 6 6 4 4 6 7 7 7 6 7 8 10 10 10 10 10 11 10 10 10 10 11 10 10 10 9 9 9 9
8 8 8 8 9 10 10 9 10 9 9 9 10 10 10 9 9 10 11 11 11 11 10 11 11 11 11 10 10 11 11 10 9 10 10 9 9 9 9 9 10 10 9 9 10 9 8 8 8 8 8 8 8 8 7 7 7 7 6 6 5 5 5 5 6 7 8 9 10 10 10 10 10 10 11 11 9 9 9 10 9 9 9 9 8
8 7 8 8 8 10 10 10 9 10 10 10 9 10 10 9 10 10 11 12 12 11 9 9 10 10 10 10 10 10 11 11 10 10 10 10 10 9 9 9 9 9 9 10 10 10 11 11 9 8 8 8 9 9 8 7 7 6 6 6 6 6 6 5 6 6 7 7 8 9 10 10 10 10 11 10 9 9 10 9 9 10 9 8 8
7 8 7 8 7 8 8 9 10 11 10 10 9 10 10 10 10 10 10 11 11 10 10 9 9 9 10 9 9 9 9 9 9 9 9 9 9 9 9 9 9 9 9 9 10 10 11 10 10 10 10 9 9 8 8 8 7 7 6 6 6 6 8 9 7 7 6 7 7 9 10 10 9 10 10 11 10 10 10 9 8 8 8 8 7
6 7 7 7 7 8 8 9 9 9 10 10 10 10 10 9 9 9 9 9 9 9 9 10 10 9 9 9 9 9 9 9 9 9 9 9 9 9 9 9 9 9 8 8 10 10 10 10 10 9 10 9 9 8 8 8 8 7 7 6 10 15 14 13 9 8 9 8 8 8 9 9 10 10 10 10 10 9 9 9 8 8 8 7 7
6 6 6 7 7 7 8 7 7 8 9 9 9 9 9 9 9 9 9 9 9 9 9 9 9 10 10 10 10 10 10 10 10 10 10 9 9 9 9 10 10 10 9 8 9 9 9 9 9 9 9 9 9 9 8 8 8 8 7 9 16 17 15 16 15 15 10 7 9 8 9 9 9 9 8 9 9 10 10 9 8 8 7 7 6
7 6 6 6 6 6 7 7 8 8 8 8 8 9 9 9 9 9 9 9 9 9 9 9 9 9 10 9 9 10 10 10 9 9 9 10 10 10 10 10 11 10 10 10 9 9 9 9 9 9 9 9 9 9 9 9 8 10 15 20 19 17 16 13 11 14 17 12 9 9 9 10 10 10 9 8 8 8 9 8 8 8 7 6 6
Wind_Direction
356 350 355 354 8 6 2 10 9 6 5 7 10 0 357 352 354 352 343 351 353 346 347 343 337 331 324 317 311 305 293 282 271 258 254 256 256 251 255 251 248 247 239 249 248 246 246 245 242 238 224 228 236 235 234 232 229 230 228 227 235 226 200 209 226 241 289 238 175 185 183 164 183 188 183 182 175 186 184 190 189 190 182 180 184
353 341 347 350 4 3 354 358 4 359 5 358 0 355 354 352 349 350 353 339 354 343 342 338 334 330 328 319 311 301 297 290 280 267 256 255 255 247 251 249 252 252 245 246 241 239 242 247 249 244 229 233 235 234 230 229 225 228 227 218 230 234 213 213 233 228 224 232 144 127 171 182 183 189 184 180 188 179 186 188 192 187 181 175 180
347 337 341 343 336 340 355 351 8 353 7 347 356 349 348 344 347 350 344 341 342 344 333 331 330 330 326 321 317 314 306 299 288 274 261 251 252 252 246 246 248 251 251 250 246 242 244 242 244 238 238 243 240 235 228 229 225 226 230 219 225 228 216 216 227 234 222 221 185 171 181 186 190 189 194 195 184 180 181 188 187 186 184 182 183
345 343 343 347 340 347 347 349 5 345 353 332 351 332 336 332 336 344 337 336 338 334 338 335 335 330 323 318 320 315 311 305 303 297 282 268 257 252 249 245 243 244 245 248 247 243 242 247 244 234 232 241 243 237 230 227 228 231 233 227 226 226 215 211 220 231 220 204 207 189 186 178 207 190 190 171 170 183 190 182 168 183 188 187 184
318 325 331 343 337 351 335 350 351 339 330 322 324 320 319 317 329 336 334 331 331 331 328 331 329 331 328 325 321 316 309 305 299 291 282 278 273 268 260 251 246 244 243 244 244 243 246 246 247 232 231 241 242 236 230 230 230 230 233 231 229 227 220 214 223 221 218 216 200 202 188 199 190 177 176 170 173 183 186 190 190 189 190 194 187
240 242 251 255 283 299 292 301 310 311 308 308 306 306 310 310 309 311 301 303 313 318 316 318 321 317 317 314 315 313 311 308 302 293 288 282 277 272 270 266 262 257 254 249 247 246 250 251 247 238 235 238 242 236 227 229 229 230 231 230 226 225 224 226 224 225 226 227 184 179 196 186 177 191 187 180 173 175 187 197 190 196 185 195 202
318 334 325 326 323 306 298 296 287 284 269 256 252 266 278 277 281 283 279 281 287 286 286 291 297 304 307 307 306 304 304 303 303 301 298 294 287 281 275 272 269 269 265 263 258 253 250 252 249 241 241 240 242 236 228 230 228 231 229 227 220 218 224 226 224 226 228 228 208 193 186 202 188 186 192 187 188 186 180 174 200 203 203 199 199
297 312 319 326 318 307 301 296 303 300 300 297 290 283 283 274 269 265 266 271 268 270 275 277 275 278 281 287 291 298 299 299 296 294 292 291 290 288 285 282 280 276 270 262 257 254 252 252 251 248 244 245 243 241 228 232 230 236 232 224 216 216 221 223 224 225 228 229 219 201 195 185 202 198 141 172 185 209 204 185 189 192 202 205 204
304 309 323 322 313 311 314 316 311 311 305 303 300 299 292 287 285 284 276 271 266 260 261 262 270 270 264 264 269 271 277 280 287 291 293 289 284 283 283 278 275 276 275 271 263 258 257 255 254 252 251 251 247 243 237 230 229 236 233 220 221 221 221 221 218 220 227 225 230 200 187 194 200 180 177 189 194 197 177 182 206 203 195 198 214
314 326 326 313 306 307 307 310 310 307 310 303 299 295 293 293 292 289 285 280 282 282 278 274 266 263 264 261 255 255 256 257 262 267 271 273 276 277 276 272 268 267 269 271 267 260 254 253 250 250 250 251 252 251 249 245 241 236 231 213 219 226 222 221 219 218 219 221 225 212 198 210 201 197 193 199 192 164 180 193 197 186 171 213 224
318 320 310 306 315 318 321 312 309 306 295 294 294 296 293 291 285 281 281 284 285 287 287 287 287 285 282 279 270 254 247 247 251 253 258 266 270 267 267 272 274 271 270 269 272 271 267 260 257 254 251 251 251 250 249 247 247 247 245 237 225 221 224 225 224 218 218 222 221 218 215 220 212 199 201 189 187 190 190 188 192 176 188 183 206
344 326 316 315 313 314 311 311 311 308 308 304 301 297 294 291 288 286 286 286 281 277 278 278 282 285 285 283 280 276 271 259 257 256 259 261 261 260 257 261 263 267 267 267 267 269 268 267 262 258 249 246 247 247 246 245 246 245 245 243 240 235 227 222 224 224 219 224 222 219 217 223 213 191 198 189 193 195 197 195 193 191 190 201 205
329 322 315 312 307 304 302 301 299 299 300 300 300 300 297 295 293 293 290 287 287 284 281 282 281 278 274 275 274 273 273 266 266 268 271 271 269 266 259 255 256 257 260 261 263 263 261 261 263 258 256 250 247 247 247 245 241 241 242 243 242 240 238 234 228 225 219 225 226 226 219 219 212 200 196 190 178 193 194 198 202 204 203 205 207
327 319 316 312 310 308 306 302 297 296 297 299 299 296 295 291 291 290 291 292 289 287 287 287 288 287 285 281 277 272 269 261 264 265 266 267 269 270 262 262 261 256 252 249 252 256 254 254 256 257 254 251 244 243 243 242 241 237 237 237 238 241 241 239 237 232 225 225 225 231 229 216 218 204 188 173 183 197 194 203 199 203 207 216 207
322 316 311 309 311 313 313 312 311 312 312 312 310 305 302 303 302 303 301 298 294 290 289 289 286 285 286 285 285 284 280 274 270 267 264 265 267 267 261 260 261 260 256 252 250 248 250 249 248 250 252 249 243 242 240 241 240 238 235 234 235 235 235 235 235 235 231 229 231 236 235 225 222 203 172 185 194 197 194 197 194 200 210 208 78
314 317 316 318 319 320 326 326 322 320 317 315 312 309 308 306 305 305 303 299 294 292 289 286 286 285 283 282 281 279 277 279 281 280 277 275 272 265 259 255 256 256 255 255 252 252 251 250 250 250 249 247 240 241 241 238 239 239 238 237 237 236 237 234 234 233 233 231 233 236 236 231 224 217 182 185 192 189 196 188 186 199 193 191 211
316 317 314 315 322 331 330 324 317 312 311 311 308 307 306 305 304 306 301 297 293 289 286 284 284 282 281 279 276 274 275 274 274 276 278 279 277 267 261 257 255 254 255 254 252 252 251 248 247 249 250 250 239 232 236 239 238 238 240 240 237 235 240 238 231 235 236 236 239 240 237 228 229 218 189 187 184 176 173 181 205 189 189 204 212
316 316 316 326 327 328 326 321 316 314 313 310 309 309 309 306 303 305 299 297 291 287 285 283 279 275 274 274 272 275 274 272 273 274 274 273 273 274 270 266 260 259 261 258 257 254 249 247 246 246 246 248 242 234 230 232 236 236 238 240 241 239 242 239 229 230 234 237 240 241 242 240 233 229 220 199 190 175 182 199 198 175 197 207 208
324 325 324 326 327 326 324 319 314 312 311 308 309 306 304 301 300 300 294 291 287 288 285 283 281 278 274 273 273 272 272 272 272 274 275 276 277 276 274 270 268 262 261 261 260 257 254 250 246 244 243 243 242 238 232 230 234 232 236 237 239 241 241 235 217 215 218 222 230 234 240 240 236 228 227 220 205 196 198 204 180 181 199 206 197
326 322 322 322 322 319 319 317 311 308 304 303 302 297 297 298 296 296 294 293 291 289 288 286 285 283 281 277 274 270 272 272 271 273 274 274 274 274 272 273 269 269 266 265 265 261 255 252 247 242 242 242 242 240 235 229 230 231 232 234 236 243 242 232 202 214 220 217 221 221 225 225 226 225 226 223 219 207 208 206 196 192 201 200 194
321 319 318 314 313 312 310 305 302 300 297 296 296 294 295 295 295 293 292 292 291 291 292 292 288 284 282 279 277 275 273 276 277 276 276 275 275 274 273 268 269 268 270 268 263 261 258 251 250 241 240 242 244 244 241 234 233 231 228 231 231 238 240 201 207 216 218 217 220 220 222 219 219 220 220 220 220 218 215 214 209 205 204 202 201
313 311 309 307 306 303 301 299 297 296 296 295 292 288 286 286 287 291 291 293 293 290 288 285 285 282 282 279 278 278 277 277 279 279 278 278 277 275 272 269 269 271 269 266 263 259 254 254 251 241 239 240 242 243 242 240 233 233 227 228 233 236 239 216 210 213 214 217 217 218 219 218 217 218 219 218 217 216 216 215 215 214 214 213 207
309 308 306 305 304 302 301 299 298 298 295 294 291 291 293 290 286 284 284 284 283 284 284 284 284 284 283 281 282 284 284 283 281 281 281 281 280 278 275 273 270 267 260 257 255 255 255 253 249 246 241 238 239 242 244 243 240 235 236 232 231 232 231 227 211 213 216 218 215 218 219 219 218 219 217 218 217 213 214 214 214 211 213 217 223
308 306 305 303 302 301 300 300 298 296 295 294 290 289 290 287 283 283 283 282 283 285 284 286 286 284 286 288 287 285 285 285 287 291 292 290 289 287 286 283 279 273 269 268 267 262 257 252 250 248 245 242 243 245 245 244 239 239 237 235 233 232 229 227 221 217 216 217 219 221 223 219 219 220 218 215 213 208 207 206 201 202 197 177 149
310 306 305 304 303 303 301 300 298 295 293 291 292 291 288 287 287 284 281 282 281 282 283 286 284 286 287 287 289 287 285 284 282 282 284 287 289 289 287 285 282 279 276 274 268 260 253 249 248 249 247 245 245 245 245 246 244 241 237 236 235 231 228 224 222 216 217 216 219 223 224 220 215 219 214 204 201 197 191 185 180 162 114 104 88
307 305 302 302 303 304 302 301 297 296 294 290 286 285 287 289 287 286 283 279 280 282 286 286 284 286 286 290 293 298 301 302 303 311 311 304 299 295 292 289 284 279 274 268 270 271 272 268 260 253 251 249 245 241 241 238 241 240 239 238 234 228 224 223 216 216 218 218 219 220 222 217 211 209 203 193 192 192 176 165 150 139 137 130 109
303 303 303 304 303 301 300 302 302 300 296 293 288 286 287 285 284 285 283 284 283 282 283 284 285 283 282 285 283 285 284 283 285 283 286 286 288 291 292 293 293 294 294 281 271 267 264 261 259 253 248 246 246 245 245 243 241 238 237 233 231 226 223 221 216 215 218 221 222 220 220 209 194 189 189 190 192 181 169 165 163 161 148 148 136
303 303 303 303 302 302 300 297 296 296 294 292 294 291 286 285 285 284 285 284 284 283 280 279 280 280 279 277 277 277 274 272 269 274 274 273 273 271 275 280 282 282 288 295 300 294 282 264 257 257 252 249 250 243 241 238 234 232 228 226 225 225 225 223 221 218 218 219 220 214 202 189 193 193 184 185 183 174 166 166 166 164 159 147 141
301 299 300 301 299 299 295 293 293 294 294 292 284 284 289 286 280 276 269 264 265 269 270 270 267 265 265 270 276 274 272 270 266 264 268 274 277 276 270 274 281 280 279 284 288 291 290 286 278 262 247 244 242 241 238 236 234 231 229 226 225 223 222 217 218 216 214 210 211 205 203 191 191 177 177 178 180 169 172 169 170 162 167 170 173
303 301 302 300 298 298 296 294 294 294 293 294 293 284 275 284 287 287 288 285 286 287 287 287 288 288 286 279 276 282 282 279 283 285 287 289 289 288 287 286 284 285 287 289 289 286 283 284 282 273 256 241 237 236 233 227 228 226 226 225 224 220 219 220 218 218 209 206 204 203 195 188 184 178 175 179 170 168 175 172 171 166 167 178 178
302 300 301 298 298 299 298 297 296 293 292 292 290 290 293 285 287 290 290 292 292 292 293 293 294 294 295 296 293 292 293 295 297 296 294 294 292 291 290 288 287 285 286 290 287 271 269 275 276 272 273 261 242 233 229 228 225 226 226 223 222 221 221 218 217 213 208 200 200 198 189 186 183 179 178 175 168 165 169 169 166 172 180 178 177
302 300 299 298 299 298 295 295 295 295 294 291 290 292 292 294 291 289 292 294 294 295 295 295 296 296 296 296 297 298 298 298 298 297 295 293 292 290 288 287 286 284 282 279 277 280 281 274 269 267 267 268 263 242 231 230 230 231 230 225 223 218 218 217 212 208 203 198 196 194 187 187 183 179 176 170 163 168 167 169 172 179 180 182 180
298 297 297 298 297 297 297 296 294 294 294 294 294 293 294 295 295 298 292 292 294 294 294 295 296 297 297 297 297 297 299 299 298 297 296 294 293 291 289 287 287 285 283 279 274 274 268 268 267 264 260 258 262 264 256 239 231 230 228 228 225 222 219 220 215 205 202 199 193 191 183 180 176 172 172 164 166 170 173 174 175 177 176 176 177
297 295 296 296 297 296 296 294 295 294 293 293 291 293 291 291 292 293 299 301 299 296 294 293 294 298 299 299 299 299 299 299 299 299 298 297 295 294 291 289 288 287 283 275 267 263 266 262 262 262 261 259 256 254 254 251 241 232 227 228 229 226 222 211 207 204 202 193 189 182 175 174 170 168 169 169 173 170 171 175 173 173 181 181 175
297 290 289 291 292 293 293 292 293 292 292 292 291 291 289 289 288 291 293 296 298 301 305 305 301 300 300 300 299 300 300 301 301 300 299 297 297 297 297 296 290 285 278 267 264 262 263 265 264 260 255 252 251 252 251 241 228 220 219 221 225 221 211 202 203 201 194 188 180 174 174 171 172 172 168 168 169 174 177 174 177 179 177 174 171
296 293 295 295 296 294 294 294 291 291 290 288 287 285 286 286 289 287 288 288 291 294 296 296 297 300 302 303 302 303 304 304 304 302 301 300 300 303 303 297 292 286 281 271 263 263 261 262 264 261 255 248 239 240 242 241 232 220 216 217 219 211 203 199 197 194 190 182 176 167 164 171 173 173 173 175 176 176 173 174 175 177 175 175 172
298 297 296 297 296 295 297 295 293 293 295 294 292 291 289 289 287 288 288 289 290 290 291 295 302 303 305 298 291 300 303 303 304 302 301 300 300 302 290 288 285 287 282 275 266 262 263 262 262 266 264 258 249 244 243 237 225 212 208 211 214 202 200 194 190 184 178 175 168 168 172 176 174 173 169 171 172 169 169 168 169 172 173 172 166
293 293 292 296 298 300 300 299 299 301 299 295 293 292 292 291 290 289 289 290 290 293 295 298 299 298 300 302 307 300 301 304 304 300 297 295 293 282 277 276 282 283 284 277 271 265 265 264 261 261 262 261 260 251 238 221 205 201 203 204 195 194 189 187 183 177 177 172 171 173 173 171 168 166 165 167 166 164 165 166 165 167 168 172 166
299 299 302 305 305 303 299 302 301 301 298 298 296 297 296 296 295 293 292 291 292 292 293 295 295 296 295 297 302 303 306 305 304 299 300 298 293 286 281 280 278 277 277 275 271 266 258 260 260 260 259 258 254 243 221 214 207 195 175 168 173 176 181 173 172 168 167 169 168 166 163 164 162 165 166 162 162 163 164 164 168 166 163 165 168
304 307 305 310 309 306 304 300 300 298 298 301 302 303 302 302 300 299 296 295 293 293 294 296 296 296 297 300 295 296 294 295 296 296 296 295 296 296 293 288 284 279 280 280 279 275 269 257 252 250 249 249 246 230 211 186 172 162 155 158 157 171 175 169 168 168 169 162 159 158 157 157 157 156 157 162 159 159 160 163 165 166 164 160 155
302 302 304 308 309 310 305 301 300 301 303 303 303 305 305 306 306 304 302 297 295 294 294 294 294 294 293 296 301 305 302 296 297 297 296 295 294 301 309 313 314 312 309 308 306 301 293 276 247 241 243 235 209 189 163 146 144 152 162 164 167 172 172 167 160 155 150 149 151 150 150 148 150 152 153 150 155 151 148 148 149 152 151 148 147
304 307 309 307 310 308 305 305 303 305 305 306 307 308 310 310 310 310 309 307 305 302 299 298 297 295 300 308 312 320 322 314 312 312 314 321 326 322 317 313 314 317 317 315 317 315 322 327 334 359 32 100 150 158 141 149 159 162 167 169 166 154 148 150 147 146 145 145 143 146 147 147 149 143 145 146 143 142 143 147 148 148 147 148 147
304 305 304 306 308 307 308 306 308 308 312 313 311 314 314 312 312 312 312 313 314 313 315 314 312 314 314 325 335 339 336 330 328 323 322 327 327 326 324 322 321 324 328 328 327 328 334 349 1 11 14 16 13 15 151 161 162 149 143 147 145 141 137 135 136 138 137 136 136 136 136 141 141 136 139 137 138 139 141 143 145 145 145 142 144
307 305 305 305 305 303 302 305 310 312 310 314 317 316 318 317 314 313 314 315 318 323 320 319 322 327 326 331 335 336 333 329 322 325 326 328 328 328 327 323 324 326 330 332 333 335 345 357 10 12 16 17 20 31 31 28 31 83 129 131 132 134 137 140 147 149 146 141 138 137 138 137 136 137 136 139 140 140 142 142 143 144 141 142 138
302 306 310 311 312 312 310 312 312 314 317 318 317 317 321 320 317 318 320 321 327 327 325 325 330 328 328 330 331 330 329 328 328 327 328 331 332 332 331 331 330 331 331 330 342 352 359 6 14 20 21 21 30 39 42 41 46 52 45 90 127 140 146 144 140 136 136 136 137 138 138 139 140 140 140 141 143 141 141 143 141 137 136 138 143
306 307 310 315 317 317 319 319 322 319 318 322 322 323 324 322 320 324 328 329 329 330 329 330 329 331 331 329 328 331 329 327 328 328 331 336 336 336 335 336 337 337 340 344 344 351 1 13 19 20 26 26 28 33 38 44 48 50 57 57 69 78 90 102 115 126 135 138 139 140 137 135 136 141 141 140 138 136 133 132 132 134 136 135 137
308 308 314 316 319 320 323 324 323 324 328 326 326 326 326 327 329 332 331 332 332 332 331 328 329 330 332 331 331 332 335 336 337 340 340 340 339 338 342 344 347 350 353 352 354 359 4 9 14 22 28 31 31 31 35 39 45 49 54 61 71 83 86 96 104 115 119 124 130 132 134 134 132 131 129 127 126 127 127 129 131 132 129 135 136
309 314 316 318 320 322 325 327 327 328 327 328 329 329 327 330 331 332 332 332 334 333 332 330 331 333 334 337 338 338 340 340 343 342 344 345 348 347 350 354 356 359 355 2 6 9 12 12 12 17 22 26 29 32 30 35 37 45 46 54 60 79 92 96 99 100 104 113 118 123 125 125 125 125 127 128 127 128 125 123 122 119 125 127 133
313 319 320 324 326 328 328 328 329 329 329 331 330 331 331 331 331 331 330 333 333 335 336 338 339 339 343 342 343 345 346 348 348 352 354 357 358 3 2 1 2 5 359 5 11 12 15 17 20 24 25 25 25 31 31 34 43 41 53 57 89 95 95 100 99 95 99 100 100 104 107 112 117 117 117 117 119 117 115 116 117 120 119 121 122
314 317 320 322 325 325 326 323 321 323 328 329 331 332 332 333 333 335 334 335 337 341 347 347 347 348 347 349 350 352 354 356 357 356 356 356 1 3 6 7 12 16 14 11 14 14 17 19 23 27 30 32 34 34 35 33 36 48 52 79 88 85 87 95 99 100 96 89 97 101 106 106 104 105 105 109 112 115 114 117 116 116 115 117 118
315 321 322 321 321 322 327 331 332 333 331 330 333 333 334 335 334 333 336 340 341 343 348 350 350 352 356 353 352 355 357 358 358 358 -0 4 4 7 9 12 13 12 20 21 21 20 20 21 25 29 36 40 41 42 43 48 48 60 72 77 79 82 83 82 86 91 97 96 93 96 102 105 108 104 102 99 99 104 109 110 113 113 112 115 116